Simultaneous Nadir Overpasses (SNOs) Predictions

Prediction of SNOs between GOES-17 and LANDSAT-8 Satellite Orbit:

Table of predicted SNOs for the next 14.0 days since TLE Epoch: 9/3/2022
Index Date Time (GOES-17) GOES-17 Lat,Lon LANDSAT-8 Lat,Lon Distance(km) Time Diff (sec)
1 09/03/2022 07:07:52 0.05,-137.31 0.83,-133.55 427.56 80
2 09/03/2022 19:26:27 -0.06,-137.31 0.26,-138.71 159.29 80
3 09/05/2022 19:16:57 -0.05,-137.30 -0.37,-135.75 176.02 80
4 09/06/2022 07:35:42 0.06,-137.31 -0.72,-140.95 414.32 80
5 09/08/2022 07:23:32 0.05,-137.30 -0.08,-138.00 79.67 80
6 09/10/2022 07:14:02 0.05,-137.28 0.55,-135.05 254.96 80
7 09/10/2022 19:32:37 -0.06,-137.28 0.59,-140.19 332.33 80
8 09/12/2022 19:23:07 -0.05,-137.26 -0.05,-137.24 2.17 80
9 09/14/2022 19:10:57 -0.05,-137.25 -0.71,-134.29 336.13 80
10 09/15/2022 07:29:41 0.05,-137.25 -0.43,-139.48 254.32 80
